CAPE
3 4 1 1 0 1 1 1 0 0 0 0 0 0 0 0 0 0 0 0 0 0 0 0 0 0 0 0 0 0 0 0 0 0 0 0 0 0 0 0 0 0 0 220 654
4 3 3 3 2 1 1 0 0 0 0 0 0 0 0 0 0 0 0 0 0 0 0 0 0 0 0 0 0 0 0 0 0 0 0 0 0 0 0 0 0 0 7 123 605
7 6 4 2 1 1 0 0 0 0 0 0 0 0 0 0 0 0 0 0 0 0 0 0 0 0 0 0 0 0 0 0 0 0 0 0 0 0 0 0 0 0 0 3 312
3 4 4 2 1 1 0 0 0 0 0 0 0 0 0 0 0 0 0 0 0 0 0 0 0 0 0 0 0 0 0 0 0 0 0 0 0 0 0 0 0 0 0 0 7
3 1 1 1 0 0 0 0 0 0 0 1 2 0 0 0 0 0 0 0 0 0 0 0 0 0 0 0 0 0 0 0 0 0 0 0 0 0 0 0 0 0 0 0 0
1 1 0 0 0 0 0 0 0 0 0 2 1 0 0 0 0 0 0 0 0 0 0 0 0 0 0 0 0 0 0 0 0 0 0 0 0 0 0 0 0 0 0 0 0
1 1 0 0 0 0 0 0 0 0 0 0 0 0 0 0 0 0 0 0 0 0 0 0 0 0 0 0 0 0 0 0 0 0 0 0 0 0 0 0 0 0 0 0 0
2 1 0 0 0 0 0 0 0 0 0 0 0 0 0 0 0 0 0 0 0 0 0 0 0 0 0 0 0 0 0 0 0 0 0 0 0 0 0 0 0 0 0 0 0
5 2 0 0 0 0 0 0 0 0 0 0 0 0 0 0 0 0 0 0 0 0 0 0 0 0 0 0 0 0 0 0 0 0 0 0 0 0 0 0 0 0 0 0 0
10 4 1 0 0 0 0 0 0 0 0 0 0 0 0 0 0 0 0 0 0 0 0 0 0 0 0 0 0 0 0 0 0 0 0 0 0 0 0 0 0 0 0 0 0
4 3 0 0 0 0 0 0 0 0 0 0 0 0 0 0 0 0 0 0 0 0 0 0 0 0 0 0 0 0 0 0 0 0 0 0 0 0 0 0 0 0 0 0 0
2 2 1 0 0 0 0 0 0 0 0 0 0 0 0 0 0 0 0 0 0 0 0 0 0 0 0 0 0 0 0 0 0 0 0 0 0 0 0 0 0 0 0 0 0
0 2 0 0 0 0 0 0 0 0 0 0 0 0 0 0 0 0 0 0 0 0 0 0 0 0 0 0 0 0 0 0 0 0 0 7 0 0 0 0 0 0 0 0 0
0 1 0 0 0 0 0 0 0 0 0 0 0 0 0 0 0 0 0 0 0 0 0 0 0 0 0 0 0 0 0 0 0 0 0 9 0 0 0 0 0 0 0 0 0
0 1 1 0 0 0 0 0 0 0 0 0 0 0 0 0 0 0 0 0 0 0 0 0 0 0 0 0 1 0 0 3 0 0 0 0 0 0 0 0 0 0 0 0 0
0 0 0 0 0 0 0 0 0 0 0 0 0 0 0 0 0 0 0 9 5 0 0 0 0 0 0 0 0 1 11 1 3 4 0 0 0 0 0 0 0 0 0 0 0
0 0 0 0 0 0 0 0 0 0 0 0 0 0 0 0 0 0 0 0 0 0 0 0 0 0 9 4 1 3 1 0 2 0 0 0 0 0 0 0 0 0 0 0 0
0 0 0 0 0 0 0 0 0 0 0 0 0 0 0 0 0 0 0 0 0 3 1 0 0 0 33 0 0 0 0 0 0 0 0 0 0 0 0 0 0 0 0 0 0
0 0 0 0 0 0 0 0 0 0 0 0 0 0 0 0 0 0 0 0 0 0 0 0 0 0 0 0 0 0 1 1 4 0 0 0 0 0 0 0 0 0 0 0 0
0 0 0 0 0 0 0 0 0 0 0 0 0 0 0 0 0 0 0 0 0 0 0 0 0 0 0 0 0 0 0 0 0 7 0 0 0 0 0 0 0 0 0 0 0
0 0 0 0 0 0 0 0 0 0 0 0 0 0 0 0 0 0 0 0 1 0 0 0 2 0 0 0 0 0 1 0 0 0 0 0 3 4 0 4 3 1 0 0 0
0 0 0 0 0 0 0 0 0 0 0 0 0 0 0 0 0 0 0 0 0 0 0 0 0 0 0 0 0 1 0 6 0 0 0 0 0 1 1 1 5 3 2 0 0
0 0 0 0 0 0 0 0 0 0 0 0 0 0 0 0 0 0 0 0 0 0 0 2 2 0 0 0 0 0 0 0 5 0 0 1 0 0 0 0 1 11 3 4 0
0 0 0 0 0 0 0 0 0 0 0 0 0 0 0 0 0 0 0 0 0 0 0 7 1 1 0 0 0 0 0 0 0 2 0 0 0 0 0 0 0 3 2 2 5
0 0 0 0 0 0 0 0 0 0 0 0 0 0 0 1 1 0 0 0 0 0 0 3 2 0 0 0 0 0 0 0 0 0 0 0 0 0 3 0 1 6 4 2 2
0 0 1 0 0 0 0 0 0 0 0 0 0 0 0 0 0 0 3 0 1 0 0 0 0 0 0 0 0 0 0 0 0 0 0 0 0 0 0 0 2 5 6 7 8
0 0 0 0 0 0 0 0 0 0 0 0 2 0 0 0 0 0 0 0 0 0 0 5 2 0 0 0 0 0 0 0 0 0 0 0 1 3 0 0 0 4 5 13 10
CIN
-0 -0 -0 -0 -0 -0 -0 -0 -0 -0 -0 -0 -0 -0 -0 -0 -0 -0 -0 -0 -0 -0 -0 -0 -0 -0 -0 -0 -0 -0 -0 -0 -0 -0 -0 -0 -0 -0 -0 -0 -0 -0 -0 -325 -390
-0 -0 -0 -0 -0 -0 -0 -0 -0 -0 -0 -0 -0 -0 -0 -0 -0 -0 -0 -0 -0 -0 -0 -0 -0 -0 -0 -0 -0 -0 -0 -0 -0 -0 -0 -0 -0 -0 -0 -0 -0 -0 -108 -410 -355
-0 -0 -0 -0 -0 -0 -0 -0 -0 -0 -0 -0 -0 -0 -0 -0 -0 -0 -0 -0 -0 -0 -0 -0 -0 -0 -0 -0 -0 -0 -0 -0 -0 -0 -0 -0 -0 -0 -0 -0 -0 -0 -0 -36 -330
-0 -0 -0 -0 -0 -0 -0 -0 -0 -0 -0 -0 -0 -0 -0 -0 -0 -0 -0 -0 -0 -0 -0 -0 -0 -0 -0 -0 -0 -0 -0 -0 -0 -0 -0 -0 -0 -0 -0 -0 -0 -0 -0 -0 -285
-0 -0 -0 -0 -0 -0 -0 -0 -0 -0 -0 -0 -0 -0 -0 -0 -0 -0 -0 -0 -0 -0 -0 -0 -0 -0 -0 -0 -0 -0 -0 -0 -0 -0 -0 -0 -0 -0 -0 -0 -0 -0 -0 -0 -0
-0 -0 -0 -0 -0 -0 -0 -0 -0 -0 -0 -0 -1 -0 -0 -0 -0 -0 -0 -0 -0 -0 -0 -0 -0 -0 -0 -0 -0 -0 -0 -0 -0 -0 -0 -0 -0 -0 -0 -0 -0 -0 -0 -0 -0
-0 -0 -0 -0 -0 -0 -0 -0 -0 -0 -0 -0 -0 -0 -0 -0 -0 -0 -0 -0 -0 -0 -0 -0 -0 -0 -0 -0 -0 -0 -0 -0 -0 -0 -0 -0 -0 -0 -0 -0 -0 -0 -0 -0 -0
-0 -0 -0 -0 -0 -0 -0 -0 -0 -0 -0 -0 -0 -0 -0 -0 -0 -0 -0 -0 -0 -0 -0 -0 -0 -0 -0 -0 -0 -0 -0 -0 -0 -0 -0 -0 -0 -0 -0 -0 -0 -0 -0 -0 -0
-0 -0 -0 -0 -0 -0 -0 -0 -0 -0 -0 -0 -0 -0 -0 -0 -0 -0 -0 -0 -0 -0 -0 -0 -0 -0 -0 -0 -0 -0 -0 -0 -0 -0 -0 -0 -0 -0 -0 -0 -0 -0 -0 -0 -0
-0 -0 -0 -0 -0 -0 -0 -0 -0 -0 -0 -0 -0 -0 -0 -0 -0 -0 -0 -0 -0 -0 -0 -0 -0 -0 -0 -0 -0 -0 -0 -0 -0 -0 -0 -0 -0 -0 -0 -0 -0 -0 -0 -0 -0
-0 -0 -0 -0 -0 -0 -0 -0 -0 -0 -0 -0 -0 -0 -0 -0 -0 -0 -0 -0 -0 -0 -0 -0 -0 -0 -0 -0 -0 -0 -0 -0 -0 -0 -0 -0 -0 -0 -0 -0 -0 -0 -0 -0 -0
-0 -0 -0 -0 -0 -0 -0 -0 -0 -0 -0 -0 -0 -0 -0 -0 -0 -0 -0 -0 -0 -0 -0 -0 -0 -0 -0 -0 -0 -0 -0 -0 -0 -0 -0 -0 -0 -0 -0 -0 -0 -0 -0 -0 -0
-0 -0 -0 -0 -0 -0 -0 -0 -0 -0 -0 -0 -0 -0 -0 -0 -0 -0 -0 -0 -0 -0 -0 -0 -0 -0 -0 -0 -0 -0 -0 -0 -0 -0 -0 -1 -0 -0 -0 -0 -0 -0 -0 -0 -0
-0 -0 -0 -0 -0 -0 -0 -0 -0 -0 -0 -0 -0 -0 -0 -0 -0 -0 -0 -0 -0 -0 -0 -0 -0 -0 -0 -0 -0 -0 -0 -0 -0 -0 -0 -7 -0 -0 -0 -0 -0 -0 -0 -0 -0
-0 -0 -0 -0 -0 -0 -0 -0 -0 -0 -0 -0 -0 -0 -0 -0 -0 -0 -0 -0 -0 -0 -0 -0 -0 -0 -0 -0 -0 -0 -0 -0 -0 -0 -0 -0 -0 -0 -0 -0 -0 -0 -0 -0 -0
-0 -0 -0 -0 -0 -0 -0 -0 -0 -0 -0 -0 -0 -0 -0 -0 -0 -0 -0 -27 -21 -2 -0 -0 -0 -0 -0 -0 -0 -1 -0 -0 -0 -1 -0 -0 -0 -0 -0 -0 -0 -0 -0 -0 -0
-0 -0 -0 -0 -0 -0 -0 -0 -0 -0 -0 -0 -0 -0 -0 -0 -0 -0 -0 -0 -0 -0 -0 -0 -0 -0 -128 -124 -81 -2 -0 -0 -2 -0 -0 -0 -0 -0 -0 -0 -0 -0 -0 -0 -0
-0 -0 -0 -0 -0 -0 -0 -0 -0 -0 -0 -0 -0 -0 -0 -0 -0 -0 -0 -0 -0 -15 -21 -0 -0 -0 -70 -0 -0 -0 -0 -0 -0 -0 -0 -0 -0 -0 -0 -0 -0 -0 -0 -0 -0
-0 -0 -0 -0 -0 -0 -0 -0 -0 -0 -0 -0 -0 -0 -0 -0 -0 -0 -0 -0 -0 -0 -0 -0 -0 -0 -0 -0 -0 -0 -0 -0 -4 -0 -0 -0 -0 -0 -0 -0 -0 -0 -0 -0 -0
-0 -0 -0 -0 -0 -0 -0 -0 -0 -0 -0 -0 -0 -0 -0 -0 -0 -0 -0 -0 -0 -0 -0 -0 -0 -0 -0 -0 -0 -0 -0 -0 -0 -10 -0 -0 -0 -0 -0 -0 -0 -0 -0 -0 -0
-0 -0 -0 -0 -0 -0 -0 -0 -0 -0 -0 -0 -0 -0 -0 -0 -0 -0 -0 -0 -1 -0 -0 -0 -0 -0 -0 -0 -0 -0 -0 -0 -0 -0 -0 -0 -2 -1 -0 -0 -0 -0 -0 -0 -0
-0 -0 -0 -0 -0 -0 -0 -0 -0 -0 -0 -0 -0 -0 -0 -0 -0 -0 -0 -0 -0 -0 -0 -0 -0 -0 -0 -0 -0 -7 -0 -0 -0 -0 -1 -0 -0 -0 -0 -0 -0 -0 -0 -0 -0
-0 -0 -0 -0 -0 -0 -0 -0 -0 -0 -0 -0 -0 -0 -0 -0 -0 -0 -0 -0 -0 -0 -0 -1 -1 -0 -0 -0 -0 -0 -0 -0 -0 -4 -0 -0 -0 -0 -0 -0 -0 -0 -0 -0 -0
-0 -0 -0 -0 -0 -0 -0 -0 -0 -0 -0 -0 -0 -0 -0 -0 -0 -0 -0 -0 -0 -0 -0 -3 -4 -2 -0 -0 -0 -0 -0 -0 -0 -0 -0 -0 -0 -0 -0 -0 -0 -0 -0 -0 -0
-0 -0 -0 -0 -0 -0 -0 -0 -0 -0 -0 -0 -0 -0 -0 -0 -0 -0 -0 -0 -0 -0 -0 -5 -2 -0 -0 -0 -0 -0 -0 -0 -0 -0 -0 -0 -0 -0 -0 -0 -0 -0 -0 -0 -0
-0 -0 -0 -0 -0 -0 -0 -0 -0 -0 -0 -0 -0 -4 -0 -0 -0 -0 -1 -0 -0 -0 -0 -0 -0 -0 -0 -0 -0 -0 -0 -0 -0 -0 -0 -0 -1 -0 -0 -0 -0 -0 -0 -0 -0
-0 -0 -0 -0 -0 -0 -0 -0 -0 -0 -0 -0 -2 -6 -0 -0 -0 -0 -0 -0 -0 -0 -0 -0 -0 -0 -0 -0 -0 -0 -0 -0 -0 -0 -0 -0 -0 -0 -0 -0 -0 -0 -0 -0 -0
Wind_Speed
22 23 24 24 25 26 27 28 29 29 30 31 32 33 34 35 35 25 24 23 26 30 28 24 21 23 23 26 24 25 39 49 44 40 35 25 23 21 23 26 23 21 23 23 7
24 24 25 26 27 28 29 30 31 31 31 31 32 32 34 35 30 22 19 24 27 29 25 25 25 24 26 29 29 33 43 49 40 42 40 34 32 30 29 29 31 27 20 15 8
25 26 27 28 28 29 30 31 31 32 32 32 32 32 34 32 25 20 21 27 28 29 23 23 24 24 29 28 32 36 53 46 41 36 38 40 42 34 35 40 34 32 22 19 14
26 27 28 29 30 31 31 32 32 32 32 32 32 32 33 25 30 19 25 30 29 28 24 22 23 28 31 36 32 45 53 48 48 48 46 43 37 41 40 48 35 34 35 28 20
28 29 30 31 32 33 34 34 33 33 33 32 29 29 27 28 25 22 27 31 28 26 26 26 27 28 35 34 34 44 53 50 50 50 48 47 51 50 55 52 43 39 34 34 32
29 30 31 32 33 35 35 34 34 34 33 30 24 23 26 34 21 26 30 28 25 25 26 26 29 28 34 37 39 39 46 49 49 52 52 52 52 46 62 47 45 47 48 44 43
29 31 32 33 34 35 35 35 35 33 31 25 20 21 26 26 25 29 27 24 23 25 28 27 28 28 31 39 36 42 54 55 58 51 52 44 57 57 66 46 46 42 43 39 38
30 32 33 34 35 36 36 35 34 26 26 23 19 23 27 22 24 26 26 25 24 26 26 28 27 29 32 36 41 46 49 56 45 46 49 45 72 59 57 46 52 50 51 49 46
31 32 33 34 35 36 36 36 27 22 22 22 22 25 26 24 29 28 25 29 31 28 29 30 26 30 32 41 48 47 60 59 56 41 42 46 69 65 61 52 53 49 47 48 48
30 32 33 35 36 35 37 30 24 21 25 21 22 25 25 30 28 28 26 26 29 30 27 25 27 32 34 38 57 53 55 58 59 42 42 53 68 62 57 51 47 42 45 46 47
30 32 33 35 36 33 33 24 28 24 28 26 26 24 26 28 24 25 26 25 24 23 27 25 30 36 35 36 44 48 55 64 64 51 49 63 63 61 54 52 56 58 48 43 45
30 31 33 33 33 30 28 25 24 23 27 24 21 22 24 24 28 26 24 28 26 28 24 27 33 32 30 33 39 44 53 61 62 51 54 65 72 67 59 54 56 55 54 52 45
30 31 32 34 25 26 26 25 25 21 26 23 21 23 27 24 27 27 24 26 26 27 27 28 28 29 30 35 38 41 47 55 61 51 57 57 78 71 64 61 58 55 57 52 50
28 30 32 33 21 25 22 25 27 18 28 27 24 23 27 25 24 23 21 25 26 29 30 26 24 30 32 35 32 44 37 46 51 52 62 39 79 63 58 61 60 62 57 56 55
27 28 29 26 21 21 22 26 22 20 34 24 24 21 29 26 26 24 22 24 28 29 26 28 32 34 35 33 30 36 34 37 40 49 55 59 67 74 53 61 58 61 65 60 53
26 24 27 21 20 18 23 23 20 27 30 24 24 30 31 26 26 28 25 22 22 26 23 29 29 27 24 31 32 36 39 42 41 43 58 63 62 81 64 67 59 59 60 62 58
23 20 20 17 20 19 22 21 26 28 23 26 28 30 29 28 27 28 29 27 24 28 28 32 25 21 22 30 26 25 32 37 38 39 57 44 57 76 51 51 58 61 63 59 58
23 21 19 18 18 19 20 23 28 24 24 25 28 28 25 30 26 29 29 27 24 23 26 27 30 21 21 26 30 32 28 34 42 41 52 39 57 61 50 54 58 54 58 60 57
23 19 20 21 18 19 22 26 24 23 23 28 28 25 23 27 26 27 25 22 22 26 27 28 25 25 27 25 25 27 28 33 36 45 47 42 60 55 53 55 57 58 58 56 60
20 18 21 20 18 20 22 23 22 19 23 25 26 23 24 26 26 28 21 17 23 26 26 27 35 24 24 26 20 26 28 29 25 32 34 37 48 46 38 38 38 46 52 55 59
19 18 18 18 19 22 23 21 20 18 22 22 22 21 20 23 23 23 17 20 25 28 31 30 25 30 30 26 30 26 26 26 27 28 29 31 31 23 29 36 40 39 42 50 54
18 19 16 17 20 20 21 20 19 20 21 21 18 17 18 22 21 19 16 19 30 31 33 24 29 33 34 30 22 21 30 27 29 29 32 32 36 24 28 32 33 32 32 32 37
19 18 16 15 20 20 19 19 17 20 21 21 20 18 20 20 22 16 18 24 35 32 31 29 26 36 33 20 22 30 30 30 31 33 32 34 33 37 37 35 33 32 29 27 26
19 19 18 17 16 19 20 20 20 18 20 18 18 18 20 20 16 17 20 28 32 36 30 32 25 26 33 32 38 38 37 37 35 34 37 39 43 39 35 35 34 32 27 25 21
19 18 17 19 18 17 18 19 20 22 18 19 19 16 21 22 19 17 21 41 36 32 23 21 33 33 28 32 39 41 39 38 37 37 36 38 36 36 33 31 30 30 27 25 20
17 17 17 17 17 17 17 19 20 20 19 20 17 18 20 20 18 21 18 26 28 29 24 23 31 37 42 41 35 40 40 37 30 31 33 34 35 30 33 31 27 24 23 22 20
14 15 17 17 17 18 17 18 19 21 19 17 19 19 20 20 19 17 18 16 14 12 12 18 23 31 40 31 34 33 18 25 27 29 28 29 30 30 28 27 28 26 22 20 20
Wind_Direction
334 329 329 327 329 327 328 329 327 328 328 330 327 323 323 320 319 334 329 330 324 317 312 309 304 293 286 279 276 275 265 261 262 263 266 275 280 279 277 272 276 280 280 284 313
334 331 331 331 331 330 330 329 329 330 331 331 326 327 322 320 329 335 341 337 331 326 321 312 297 294 282 276 272 264 263 262 266 264 265 267 267 273 271 268 264 271 284 299 291
335 333 333 333 333 331 331 331 330 329 329 328 327 328 325 331 333 337 336 332 333 330 329 320 310 295 280 278 268 267 260 265 266 269 267 266 261 268 267 259 260 263 274 281 286
339 337 336 335 334 332 331 329 329 329 327 326 327 329 328 338 320 336 330 326 329 331 328 320 310 295 283 273 274 267 262 264 265 264 266 265 266 261 264 255 262 264 266 271 273
339 338 336 335 334 331 329 327 328 325 325 325 329 332 336 331 328 334 328 325 328 328 327 315 304 299 284 282 278 269 266 266 265 264 264 265 260 259 256 255 261 264 265 262 264
340 339 338 337 335 330 325 323 324 325 324 329 335 341 338 323 340 332 324 325 326 327 322 320 308 301 292 282 277 278 274 270 266 263 262 261 261 263 245 258 263 259 258 258 256
340 339 336 332 326 323 322 324 325 326 332 341 347 345 336 331 339 336 337 329 326 323 315 316 311 301 297 283 284 279 271 269 263 263 262 266 258 253 236 258 261 260 259 260 257
338 335 330 327 327 326 326 327 327 340 346 354 357 346 333 343 344 339 337 333 329 325 316 314 309 300 290 288 281 274 271 264 268 264 262 258 254 251 249 258 258 258 256 255 255
332 331 330 330 330 328 327 326 339 348 353 355 348 344 337 346 337 337 332 321 317 316 313 307 302 296 292 280 273 268 263 262 265 270 264 255 254 251 251 257 258 258 256 254 253
334 333 333 332 332 329 327 339 351 354 348 352 352 341 346 339 345 343 341 333 324 317 312 306 300 292 286 277 266 267 264 262 260 266 269 259 255 255 254 256 254 259 255 254 252
337 337 336 335 333 338 343 353 347 346 349 344 341 346 344 345 349 348 344 340 339 333 314 312 298 288 286 280 275 272 267 262 259 266 267 258 258 256 258 257 251 251 254 255 251
342 341 340 338 338 350 1 1 0 353 345 351 351 352 348 353 344 348 353 337 333 324 323 311 299 297 293 287 280 274 268 263 263 269 264 260 257 257 258 255 252 251 251 250 253
347 346 344 339 354 2 5 6 359 2 347 347 354 356 356 356 346 345 350 342 333 324 320 311 309 309 296 290 285 278 272 267 263 271 265 265 256 255 255 255 252 250 249 249 249
355 352 349 343 8 1 8 3 358 12 349 348 352 356 355 356 349 355 354 343 332 322 322 315 316 310 302 292 293 280 287 275 270 265 256 264 253 256 257 253 249 246 247 247 246
3 359 355 5 9 10 7 360 9 9 344 355 357 5 355 355 348 350 352 342 327 322 322 314 310 306 300 299 297 286 292 286 279 266 263 256 256 250 257 250 249 245 243 245 247
5 8 2 15 12 18 7 7 13 357 348 355 358 352 352 354 349 345 349 350 338 326 321 310 317 310 312 310 302 293 288 284 280 272 259 253 253 250 251 249 253 249 246 244 246
13 17 15 23 13 17 9 13 0 357 2 357 353 352 351 351 350 352 348 347 343 331 321 310 318 320 324 313 319 313 298 282 276 268 259 265 253 249 256 255 253 252 247 246 246
14 19 30 30 24 23 21 9 359 1 359 358 355 354 355 354 355 352 353 349 352 343 328 321 305 321 329 318 311 308 303 284 276 274 267 273 255 253 258 256 259 259 251 248 247
17 32 30 21 34 28 17 7 6 4 5 357 357 360 360 357 358 358 358 359 356 349 333 320 311 323 317 314 322 319 310 309 287 276 273 273 262 265 260 260 258 254 253 251 246
25 31 23 28 38 23 16 11 10 14 6 4 1 6 358 357 356 355 360 4 347 338 341 324 291 324 323 321 319 317 315 317 310 283 278 273 264 262 259 265 268 259 256 253 249
26 25 30 29 30 20 14 15 12 14 11 8 5 1 0 357 358 356 1 352 340 330 328 325 313 300 308 315 306 311 314 321 314 299 290 283 268 295 276 275 275 272 269 262 252
27 17 28 29 15 18 18 17 17 12 10 8 9 4 1 359 357 358 359 353 331 326 316 334 312 297 296 306 315 315 308 311 307 300 293 283 271 297 299 291 284 280 280 282 262
19 21 28 29 12 15 16 13 15 11 12 11 7 5 3 359 358 5 354 340 320 322 319 322 312 293 302 321 318 308 305 300 303 297 285 277 270 296 291 295 291 285 289 290 273
19 15 21 23 21 13 10 10 11 17 4 6 8 4 2 359 357 354 343 330 324 317 326 310 313 305 297 301 292 283 291 289 293 291 281 273 274 287 292 286 290 285 288 297 283
18 17 22 10 11 12 15 11 5 2 9 9 8 8 359 351 348 340 342 298 321 323 329 327 299 303 304 289 280 271 282 288 287 279 274 270 278 283 285 288 292 285 286 291 291
13 17 19 11 9 7 7 9 5 4 5 2 358 356 354 349 341 324 331 334 331 326 323 324 308 297 274 276 285 273 279 279 289 296 277 273 275 284 282 276 283 288 283 284 295
17 20 15 11 9 6 6 9 9 7 2 2 360 352 341 336 339 331 322 302 287 282 288 315 315 303 279 295 288 289 301 298 295 300 290 283 288 293 292 283 287 286 281 286 295